Lapse_Rate
9.1 8.9 8.7 9.0 8.8 9.0 8.9 7.1 7.1 7.1 7.7 8.0 7.7 8.0 7.7 7.4 7.3 7.6 7.3 7.2 7.0 7.0 6.8 6.8 6.7 6.3 6.8 6.0 6.0 5.8 5.9 6.2
9.0 8.8 8.7 8.7 8.9 9.0 8.9 6.5 6.5 6.3 7.1 8.2 8.1 8.1 8.1 7.6 7.2 7.3 7.7 7.7 7.6 7.5 7.3 7.0 6.7 6.4 6.4 6.2 6.0 5.9 6.0 6.0
8.7 8.5 8.7 8.7 9.0 9.1 8.9 8.3 6.0 5.4 7.4 8.5 8.6 8.6 8.5 7.6 7.4 7.4 7.8 7.3 7.2 7.3 7.4 7.4 7.2 7.0 6.6 6.3 6.1 6.0 5.7 5.9
8.3 8.3 8.6 9.1 9.2 9.2 9.1 8.1 8.0 7.8 8.6 8.9 8.3 8.3 8.5 8.1 7.5 7.2 7.6 7.5 7.2 7.2 7.1 7.1 7.0 6.9 6.9 6.8 6.8 6.2 6.1 6.2
8.4 8.2 8.8 8.9 9.1 9.1 9.0 8.9 8.6 7.9 8.9 9.0 8.3 7.9 7.8 7.5 7.4 7.3 7.6 7.5 6.9 6.7 6.5 6.6 6.5 6.4 6.4 6.3 6.2 6.2 5.9 6.0
8.6 8.9 9.0 8.9 9.1 8.9 8.8 8.8 8.8 8.9 9.0 8.9 8.8 8.3 7.8 7.5 7.1 7.0 7.1 6.8 6.7 6.6 6.5 6.3 6.1 6.0 6.0 5.8 5.8 5.8 5.9 5.8
8.7 8.7 8.8 9.0 8.8 8.6 8.5 8.6 8.8 9.0 8.9 8.8 9.1 8.8 8.0 7.6 7.2 7.1 7.1 7.0 6.9 6.7 6.3 6.3 6.4 6.3 6.0 5.9 5.7 5.6 5.7 5.9
8.6 8.7 8.8 8.7 8.6 8.6 8.4 8.6 8.7 8.8 8.8 8.9 8.7 8.1 7.7 7.8 7.4 7.2 7.0 7.0 6.9 6.7 6.7 6.7 6.5 6.4 6.3 6.2 6.0 5.9 6.0 5.8
8.7 8.6 8.4 8.3 8.4 8.5 8.4 8.4 8.4 8.5 8.7 8.8 8.5 8.1 7.7 7.6 7.2 7.1 6.8 6.8 6.9 6.9 6.8 6.4 6.2 6.1 5.9 5.8 5.7 5.6 5.5 5.5
8.4 8.3 7.5 8.2 8.5 8.6 8.6 8.5 8.4 8.4 8.4 8.7 8.5 7.9 7.3 7.4 7.7 7.6 7.2 7.0 6.9 6.8 6.4 6.1 6.0 5.9 5.5 5.5 5.7 5.6 5.4 5.4
8.3 8.3 7.8 7.8 8.2 8.4 8.4 8.3 8.3 8.2 8.1 8.1 8.2 7.8 7.7 8.0 8.1 7.8 7.5 6.9 6.7 6.4 6.3 6.0 5.7 5.5 5.6 5.8 5.8 5.7 5.7 5.8
8.1 7.9 6.4 8.4 8.4 8.3 8.0 8.0 8.2 8.1 8.1 8.0 8.2 8.0 8.2 8.2 8.0 7.5 6.9 6.6 6.4 6.2 5.9 5.5 5.2 5.2 5.5 5.6 5.7 5.7 5.9 6.0
8.2 7.6 7.9 8.0 8.1 8.2 7.6 8.2 8.2 8.3 8.0 7.9 8.0 8.0 7.8 7.6 7.2 6.8 6.6 6.3 6.1 5.9 5.8 5.6 5.6 5.6 5.5 5.5 5.4 5.6 5.7 5.8
8.3 7.8 8.1 8.2 8.0 7.8 8.1 8.0 8.0 8.0 7.8 7.8 7.6 7.6 7.2 7.0 6.7 6.5 6.3 6.1 6.1 6.0 5.9 5.8 5.7 5.7 5.7 5.6 5.6 5.7 5.8 6.0
8.5 8.4 8.3 8.4 8.4 8.2 8.1 8.0 7.9 7.7 7.7 7.6 7.2 6.9 6.7 6.5 6.4 6.3 6.4 6.4 6.3 6.3 6.2 5.9 5.8 5.8 6.0 5.9 5.8 5.8 5.8 5.8
8.3 8.2 8.4 8.4 8.3 8.1 7.6 7.5 7.5 7.3 6.9 6.7 6.6 6.5 6.4 6.5 6.5 6.6 6.5 6.4 6.3 6.1 6.0 6.0 6.0 5.9 5.8 5.8 5.8 5.7 5.5 5.4
7.7 7.9 8.0 8.2 8.3 7.9 7.8 7.6 7.3 7.1 6.9 6.8 6.7 6.7 6.6 6.6 6.6 6.5 6.2 6.1 5.9 6.0 6.0 6.0 5.9 5.9 5.8 5.8 5.7 5.5 5.2 5.3
7.8 7.9 7.8 7.7 7.9 7.9 7.7 7.4 7.2 7.1 7.0 6.8 6.7 6.5 6.3 6.2 6.2 6.1 6.0 5.9 5.9 6.0 6.0 6.0 6.0 5.9 5.7 5.7 5.4 5.1 5.3 5.4
7.9 7.8 7.6 7.4 7.7 7.7 7.5 7.2 7.0 6.8 6.7 6.5 6.4 6.1 5.8 5.8 5.8 5.8 5.8 5.9 5.9 5.9 5.9 6.0 6.0 6.0 6.0 5.6 5.3 5.3 5.5 5.6
Wind_Speed
5 5 6 4 3 5 8 3 3 4 5 7 5 5 9 8 6 6 3 2 4 4 5 6 7 8 11 12 8 6 7 6
4 4 4 3 7 4 3 4 1 4 6 5 5 6 9 7 5 5 6 6 4 4 4 4 4 5 6 7 6 6 7 7
5 2 5 2 2 6 6 4 5 2 6 8 3 8 11 5 5 4 7 6 5 4 4 5 5 5 2 2 1 3 5 5
9 5 6 2 6 6 5 5 1 3 6 5 4 7 9 7 5 4 5 6 6 4 4 6 8 8 7 5 4 2 1 1
9 6 3 5 3 5 6 4 6 6 6 4 4 6 6 10 5 4 5 6 5 5 5 6 5 5 6 5 5 5 6 5
7 7 3 4 4 5 4 4 6 6 4 5 9 8 6 7 6 5 5 6 4 4 3 3 3 5 4 3 3 3 5 4
3 3 1 3 3 8 6 4 5 5 13 15 16 12 10 10 7 6 5 6 4 3 3 1 2 1 0 1 3 4 5 4
2 6 4 1 3 3 4 3 5 1 6 4 11 7 8 11 8 6 6 5 5 4 2 2 3 3 4 4 3 1 2 4
2 2 3 2 3 5 1 2 4 5 4 8 12 11 11 7 6 6 5 4 3 4 1 2 1 1 2 5 5 5 5 5
2 5 1 5 1 3 6 3 4 2 4 6 10 6 8 6 6 6 5 4 3 0 2 0 3 5 4 4 4 5 5 6
3 3 3 4 5 5 5 3 3 6 11 14 14 12 7 4 4 5 5 4 2 1 3 5 6 6 6 6 5 5 5 5
4 5 8 7 5 4 4 4 5 9 11 13 4 5 3 3 4 5 5 4 5 4 3 5 6 6 6 6 6 7 6 8
2 4 5 4 3 3 5 6 7 7 4 4 5 3 6 5 5 4 3 4 4 5 4 5 5 5 6 5 7 7 7 8
4 2 7 4 4 7 4 5 11 5 4 9 9 7 7 6 5 5 5 5 5 4 5 5 5 5 7 7 8 8 8 10
6 5 3 4 3 1 5 15 6 8 6 11 9 6 6 4 4 3 3 4 4 5 6 5 6 6 9 9 9 9 9 13
2 4 4 4 3 5 4 8 8 11 10 7 9 6 6 4 3 3 4 4 4 6 7 8 8 8 8 10 9 9 13 12
1 4 2 3 2 6 8 11 11 7 7 9 10 6 4 3 1 2 3 3 4 4 5 7 9 8 8 9 9 10 11 10
6 8 4 5 5 7 12 10 11 13 6 5 6 7 4 3 2 3 4 4 4 5 6 9 8 8 8 9 7 9 10 8
3 9 5 7 7 4 8 10 7 10 10 9 5 5 4 2 2 3 4 4 4 6 7 8 8 8 9 10 10 10 10 11
Wind_Direction
215 180 141 188 140 150 105 6 60 304 290 289 236 206 71 47 80 90 123 217 246 233 244 242 233 181 189 227 215 193 201 202
321 89 26 177 149 87 24 127 216 301 282 238 253 133 74 62 53 83 90 79 70 47 30 353 292 285 195 211 207 186 196 204
23 56 189 129 84 52 111 110 152 163 261 229 197 117 112 103 98 111 106 95 73 54 55 48 37 30 53 104 209 228 209 207
245 266 214 279 144 137 125 227 136 151 271 281 146 91 119 129 146 133 125 115 103 80 72 67 63 61 68 76 95 64 268 321
335 349 22 96 109 103 105 98 189 141 257 339 96 121 133 146 171 172 139 113 102 86 68 70 75 80 82 79 82 73 60 57
184 210 150 153 148 140 104 130 173 214 240 238 193 174 159 152 170 169 155 136 108 73 54 52 70 74 69 68 68 71 57 48
218 260 249 132 161 163 188 182 166 221 185 206 194 182 172 167 167 158 176 151 147 168 194 160 102 100 351 301 354 4 19 12
79 32 360 67 328 220 207 151 284 76 247 272 153 117 145 168 161 166 182 160 155 151 89 337 297 312 326 325 324 9 334 301
213 54 21 42 225 277 326 74 147 201 249 143 145 155 159 144 151 168 158 148 116 61 55 277 294 295 335 337 340 339 313 298
145 48 301 250 106 147 126 51 323 91 103 133 123 95 108 136 157 148 130 92 77 148 198 147 41 24 341 358 2 340 328 323
126 164 281 288 233 189 184 298 320 129 116 118 122 92 45 47 90 108 104 121 136 67 39 15 6 342 346 339 341 329 319 308
138 197 199 234 183 131 118 293 131 139 133 136 142 114 177 108 99 97 92 76 49 23 18 6 341 339 337 323 329 318 311 308
160 222 287 228 191 143 124 236 143 144 135 116 101 165 155 128 79 74 73 40 30 13 346 315 318 331 315 308 302 298 303 303
111 128 264 152 98 178 192 64 138 126 114 101 117 113 109 104 81 49 26 2 350 339 327 319 328 334 318 310 304 311 318 316
180 215 277 285 284 321 167 136 145 123 127 128 117 107 107 100 58 26 5 340 348 348 327 330 335 332 319 313 317 317 320 319
65 331 335 355 68 89 105 109 112 123 128 121 120 123 121 114 60 26 3 344 332 334 330 326 333 328 309 307 309 322 314 312
27 303 333 336 103 119 99 108 107 94 119 130 124 125 123 122 62 346 336 344 347 328 315 318 323 318 335 334 332 317 306 302
210 193 161 192 175 136 129 130 130 121 104 99 118 134 129 112 28 7 356 350 344 327 325 333 328 331 318 317 308 300 299 296
222 174 194 159 147 143 132 137 133 131 134 135 127 123 120 110 59 22 10 347 337 322 334 338 324 324 326 326 315 306 303 299